STARLINK-34477

导读

STARLINK-34477是美国SpaceX公司星链(Starlink)星座的成员卫星,于2025年6月23日发射升空。星链项目旨在通过近地轨道卫星星座,为全球偏远、欠发达地区提供高速低延迟宽带互联网服务,可支撑视频通话、在线流媒体与网络游戏等日常需求。STARLINK-34477延续了星链批次的技术迭代,进一步扩充星座覆盖密度,助力实现全球无缝网络连接的目标。

Basic Information
目录编号:
64487
目录名称:
STARLINK-34477
国际标识:
2025-133R
轨道中心:
EARTH
卫星名称:
STARLINK-34477
卫星全名:
STARLINK-34477
卫星状态:
在轨 (已飞行355 天)
发射日期:
2025-06-23 UTC
国别 :
美国 (US)
星等 :
--
Orbit Information
数据来源 国际轨道数据
星历时间: 2026-06-13T16:40:14+0800
14小时前
查看轨道信息
半长轴: 6853.357km
偏心率: 0.0001559
轨道倾角: 53.161°
近地点辐角 106.609°
升交点赤经 32.588°
平近点角 253.508°
近地点: 474.151km
远地点: 476.289km
周期: 94.105分钟
每日圈数: 15.301985
Detailed Information
使用方式:
暂无
2D Orbit Map
3D Orbit Map
Orbit Altitude Analysis Chart
Orbit Inclination Analysis Chart
Orbit Comprehensive Analysis Chart
View Comprehensive Chart